Date String (YYYY-MM-DD hh:mm:ss) UTC,Instrument flags,Ambient pressure (hPa),Sample flow (lpm),Bypass flow (lpm),Sample temperature (°C),Ambient temperature (°C),ASC tube jacket temperature (°C),LED temperature (°C),Box temperature (°C),Sample RH (%),Span deviation,Mass concentration (μg/m³),Mass concentration (μg/m³),Mass concentration (μg/m³)
DateTimeUTC,F1_M11,P_M11,Q1_M11,Q2_M11,T1_M11,T2_M11,T3_M11,T4_M11,T5_M11,U1_M11,ZSPAN_M11,X0_M11,X2_M11,X1_M11
2022-01-29 04:00:00,,0831.4,5.00,0.00,23.9,23.2,00.0,33.0,25.6,04.5,0000.0,0001.58,0001.00,0000.77
2022-01-29 04:01:00,,0831.4,5.01,0.00,23.9,23.2,00.0,33.0,25.6,04.6,0000.0,0001.57,0000.99,0000.76
2022-01-29 04:02:00,,0831.4,5.00,0.00,23.9,23.2,00.0,33.0,25.6,04.4,0000.0,0001.39,0000.91,0000.72
2022-01-29 04:03:00,,0831.4,5.01,0.00,23.9,23.2,00.0,33.0,25.6,04.3,0000.0,0001.25,0000.85,0000.69
2022-01-29 04:04:00,,0831.4,5.00,0.00,23.9,23.2,00.0,32.9,25.6,04.6,0000.0,0001.25,0000.84,0000.68
2022-01-29 04:05:00,,0831.4,5.00,0.00,23.8,23.1,00.0,32.9,25.5,04.4,0000.0,0001.38,0000.86,0000.68
2022-01-29 04:06:00,,0831.4,5.00,0.00,23.8,23.1,00.0,32.9,25.5,04.3,0000.0,0001.33,0000.84,0000.68
2022-01-29 04:07:00,,0831.4,5.00,0.00,23.8,23.1,00.0,32.9,25.5,04.3,0000.0,0001.37,0000.84,0000.66
2022-01-29 04:08:00,,0831.4,5.00,0.00,23.8,23.0,00.0,32.9,25.5,04.7,0000.0,0001.36,0000.84,0000.67
2022-01-29 04:09:00,,0831.4,4.99,0.00,23.8,23.0,00.0,32.9,25.5,04.7,0000.0,0001.53,0000.84,0000.67
2022-01-29 04:10:00,,0831.4,5.00,0.00,23.8,23.1,00.0,32.9,25.5,04.8,0000.0,0001.54,0000.83,0000.69
2022-01-29 04:11:00,,0831.4,5.01,0.00,23.8,23.1,00.0,32.8,25.5,04.7,0000.0,0001.54,0000.84,0000.70
2022-01-29 04:12:00,,0831.4,5.01,0.00,23.8,23.1,00.0,32.8,25.5,04.7,0000.0,0001.58,0000.85,0000.70
2022-01-29 04:13:00,,0831.3,5.01,0.00,23.8,23.1,00.0,32.8,25.5,05.0,0000.0,0001.66,0000.89,0000.72
2022-01-29 04:14:00,,0831.4,5.00,0.00,23.8,23.1,00.0,32.8,25.5,04.9,0000.0,0001.77,0000.93,0000.74
2022-01-29 04:15:00,,0831.4,5.00,0.00,23.8,23.1,00.0,32.8,25.5,04.6,0000.0,0001.89,0000.96,0000.75
2022-01-29 04:16:00,,0831.4,5.00,0.00,23.8,23.1,00.0,32.8,25.5,04.5,0000.0,0001.78,0000.95,0000.75
2022-01-29 04:17:00,,0831.3,5.00,0.00,23.8,23.1,00.0,32.8,25.5,04.5,0000.0,0001.80,0000.96,0000.75
2022-01-29 04:18:00,,0831.2,5.00,0.00,23.8,23.1,00.0,32.8,25.5,04.4,0000.0,0001.75,0000.94,0000.76
2022-01-29 04:19:00,,0831.2,5.00,0.00,23.7,23.0,00.0,32.8,25.5,04.4,0000.0,0001.71,0000.92,0000.74
2022-01-29 04:20:00,,0831.1,5.00,0.00,23.7,23.0,00.0,32.8,25.5,04.4,0000.0,0001.53,0000.91,0000.73
2022-01-29 04:21:00,,0831.1,4.99,0.00,23.7,23.0,00.0,32.8,25.5,04.1,0000.0,0001.43,0000.89,0000.72
2022-01-29 04:22:00,,0831.1,5.00,0.00,23.7,23.0,00.0,32.8,25.5,04.1,0000.0,0001.39,0000.86,0000.70
2022-01-29 04:23:00,,0831.1,5.00,0.00,23.7,22.9,00.0,32.7,25.4,04.4,0000.0,0001.29,0000.82,0000.68
2022-01-29 04:24:00,,0831.2,5.01,0.00,23.7,22.9,00.0,32.7,25.3,04.2,0000.0,0001.21,0000.79,0000.67
2022-01-29 04:25:00,,0831.2,5.00,0.00,23.6,22.9,00.0,32.7,25.3,04.1,0000.0,0001.10,0000.76,0000.65
2022-01-29 04:26:00,,0831.2,5.01,0.00,23.6,22.9,00.0,32.7,25.3,04.2,0000.0,0001.14,0000.74,0000.64
2022-01-29 04:27:00,,0831.2,5.00,0.00,23.6,22.9,00.0,32.7,25.3,04.3,0000.0,0001.12,0000.74,0000.64
2022-01-29 04:28:00,,0831.2,4.99,0.00,23.6,22.9,00.0,32.7,25.3,04.0,0000.0,0001.16,0000.75,0000.65
2022-01-29 04:29:00,,0831.2,5.00,0.00,23.6,22.8,00.0,32.7,25.3,03.8,0000.0,0001.19,0000.76,0000.65
2022-01-29 04:30:00,,0831.2,5.00,0.00,23.6,22.8,00.0,32.6,25.3,03.8,0000.0,0001.19,0000.76,0000.65
2022-01-29 04:31:00,,0831.2,4.99,0.00,23.6,22.8,00.0,32.6,25.3,03.8,0000.0,0001.23,0000.77,0000.65
2022-01-29 04:32:00,,0831.2,5.01,0.00,23.6,22.8,00.0,32.6,25.2,03.8,0000.0,0001.25,0000.78,0000.65
2022-01-29 04:33:00,,0831.2,5.00,0.00,23.5,22.8,00.0,32.6,25.2,04.1,0000.0,0001.27,0000.80,0000.66
2022-01-29 04:34:00,,0831.2,5.00,0.00,23.5,22.8,00.0,32.6,25.2,04.1,0000.0,0001.28,0000.80,0000.67
2022-01-29 04:35:00,,0831.1,5.00,0.00,23.5,22.8,00.0,32.6,25.2,03.7,0000.0,0001.25,0000.78,0000.66
2022-01-29 04:36:00,,0831.2,5.00,0.00,23.5,22.8,00.0,32.6,25.2,03.7,0000.0,0001.22,0000.78,0000.66
2022-01-29 04:37:00,,0831.2,5.00,0.00,23.5,22.8,00.0,32.6,25.2,03.7,0000.0,0001.07,0000.76,0000.66
2022-01-29 04:38:00,,0831.2,5.00,0.00,23.5,22.8,00.0,32.6,25.2,03.8,0000.0,0001.09,0000.77,0000.66
2022-01-29 04:39:00,,0831.2,5.00,0.00,23.5,22.7,00.0,32.6,25.2,03.9,0000.0,0001.10,0000.77,0000.66
2022-01-29 04:40:00,,0831.2,5.00,0.00,23.5,22.7,00.0,32.5,25.1,03.9,0000.0,0001.09,0000.77,0000.66
2022-01-29 04:41:00,,0831.1,5.00,0.00,23.5,22.7,00.0,32.5,25.2,04.0,0000.0,0001.12,0000.79,0000.65
2022-01-29 04:42:00,,0831.1,4.99,0.00,23.5,22.7,00.0,32.5,25.2,04.0,0000.0,0001.13,0000.79,0000.66
2022-01-29 04:43:00,,0831.0,5.00,0.00,23.4,22.7,00.0,32.5,25.2,04.0,0000.0,0001.09,0000.78,0000.65
2022-01-29 04:44:00,,0831.0,5.01,0.00,23.4,22.8,00.0,32.5,25.2,04.0,0000.0,0001.06,0000.76,0000.64
2022-01-29 04:45:00,,0831.0,5.01,0.00,23.4,22.7,00.0,32.5,25.2,04.0,0000.0,0001.08,0000.76,0000.63
2022-01-29 04:46:00,,0831.0,4.98,0.00,23.4,22.7,00.0,32.5,25.2,04.0,0000.0,0001.10,0000.76,0000.62
2022-01-29 04:47:00,,0831.0,5.00,0.00,23.4,22.7,00.0,32.5,25.1,04.0,0000.0,0001.12,0000.76,0000.62
2022-01-29 04:48:00,,0831.0,5.00,0.00,23.4,22.7,00.0,32.5,25.1,03.9,0000.0,0001.24,0000.78,0000.62
2022-01-29 04:49:00,,0831.0,5.00,0.00,23.4,22.6,00.0,32.4,25.1,03.8,0000.0,0001.38,0000.78,0000.61
2022-01-29 04:50:00,,0831.0,5.00,0.00,23.4,22.6,00.0,32.4,25.1,03.7,0000.0,0001.34,0000.76,0000.60
2022-01-29 04:51:00,,0831.0,5.00,0.00,23.3,22.6,00.0,32.4,25.0,03.8,0000.0,0001.32,0000.75,0000.58
2022-01-29 04:52:00,,0831.0,5.00,0.00,23.3,22.5,00.0,32.4,25.0,03.8,0000.0,0001.38,0000.75,0000.58
2022-01-29 04:53:00,,0831.0,5.00,0.00,23.3,22.5,00.0,32.4,25.0,03.7,0000.0,0001.36,0000.75,0000.57
2022-01-29 04:54:00,,0831.0,4.98,0.00,23.3,22.5,00.0,32.4,25.0,03.8,0000.0,0001.41,0000.77,0000.57
2022-01-29 04:55:00,,0831.0,5.01,0.00,23.2,22.5,00.0,32.4,24.9,03.7,0000.0,0001.38,0000.76,0000.57
2022-01-29 04:56:00,,0831.0,5.01,0.00,23.2,22.5,00.0,32.3,24.9,03.8,0000.0,0001.31,0000.73,0000.56
2022-01-29 04:57:00,,0831.0,5.00,0.00,23.2,22.4,00.0,32.3,24.9,03.8,0000.0,0001.33,0000.74,0000.56
2022-01-29 04:58:00,,0831.0,5.00,0.00,23.2,22.5,00.0,32.3,24.9,03.9,0000.0,0001.32,0000.74,0000.56
2022-01-29 04:59:00,,0830.9,5.00,0.00,23.2,22.4,00.0,32.3,24.9,03.9,0000.0,0001.20,0000.71,0000.55
